Location: Baia Mare
(47.6567°N, 23.5850°E)
Time: 07:20:59
(UTC+03:00)

ISS - Pass Details

Date: 08 July 2018
Orbit: 402 x 408 km, 51.6° (Epoch: 23 July)

Event Time Altitude Azimuth Distance (km) Brightness Sun altitude
Exits shadow 04:03:40 21° 220° (SW) 986 -2.5 -11.9°
Maximum altitude 04:05:39 53° 149° (SSE) 507 -3.5 -11.7°
Drops below altitude 10° 04:08:53 10° 72° (ENE) 1,475 -0.1 -11.4°
Sets 04:11:00 0° 67° (ENE) 2,339 1.2 -11.2°
